CW9718 Weather Reports


time (UTC)temp
C
wind
direction
speed
KPH
gust
KPH
rain 1hr
cm
rain 24hr
cm
rain mn
cm
humidity
%
barometer
mb
20260506030826 11 339 4.8 12.9 0.00 0.00 0.00 82 1012.6
20260506030329 11 348 3.2 12.9 0.00 0.00 0.00 82 1012.5
20260506025830 11 347 3.2 12.9 0.00 0.00 0.00 82 1012.6
20260506025342 11 344 3.2 14.5 0.00 0.00 0.00 82 1012.4
20260506024840 11 345 6.4 14.5 0.00 0.00 0.00 82 1012.1
20260506024344 11 338 3.2 14.5 0.00 0.00 0.00 82 1011.8
20260506023833 11 346 3.2 19.3 0.00 0.00 0.00 81 1011.7
20260506023339 11 340 4.8 19.3 0.00 0.00 0.00 81 1011.6
20260506022838 11 355 4.8 9.7 0.00 0.00 0.00 81 1011.4
20260506022327 11 347 3.2 9.7 0.00 0.00 0.00 81 1011.3
20260506021829 11 344 3.2 8.0 0.00 0.00 0.00 81 1011.3
20260506021357 11 344 4.8 9.7 0.00 0.00 0.00 81 1011.2
20260506020838 11 348 4.8 9.7 0.00 0.00 0.00 81 1011.0
20260506020323 11 344 3.2 9.7 0.00 0.00 0.00 81 1011.0
20260506015835 11 346 3.2 17.7 0.00 0.00 0.00 81 1011.0
20260506015332 11 344 4.8 17.7 0.00 0.00 0.00 81 1011.1
20260506014837 11 340 3.2 12.9 0.00 0.00 0.00 81 1010.8
20260506014323 11 350 3.2 14.5 0.00 0.00 0.00 82 1010.6
20260506013843 11 342 3.2 14.5 0.00 0.00 0.00 83 1010.6
20260506013327 11 342 3.2 12.9 0.00 0.00 0.00 83 1010.6
20260506012826 11 355 3.2 17.7 0.00 0.00 0.00 84 1010.6
20260506012336 11 332 3.2 9.7 0.00 0.00 0.00 84 1010.2
20260506011845 11 64 1.6 14.5 0.00 0.00 0.00 84 1010.4
20260506011341 11 338 6.4 17.7 0.00 0.00 0.00 83 1010.3
20260506010857 11 5 4.8 17.7 0.00 0.00 0.00 83 1010.2
20260506010335 11 339 3.2 8.0 0.00 0.00 0.00 84 1010.1
20260506005828 11 355 3.2 20.9 0.00 0.00 0.00 84 1010.1
20260506005331 11 344 4.8 20.9 0.00 0.00 0.00 84 1010.0
20260506004849 11 348 4.8 17.7 0.00 0.00 0.00 84 1010.1
20260506004342 11 350 4.8 17.7 0.00 0.00 0.00 84 1009.7
20260506003832 11 355 4.8 16.1 0.00 0.00 0.00 84 1009.6
20260506003336 11 349 3.2 17.7 0.00 0.00 0.00 84 1009.7
20260506002905 11 331 4.8 17.7 0.00 0.00 0.00 84 1009.8
20260506002338 11 336 4.8 12.9 0.00 0.00 0.00 84 1009.7
20260506001848 12 360 4.8 14.5 0.00 0.00 0.00 83 1009.5
20260506001351 12 5 4.8 12.9 0.00 0.00 0.00 83 1009.4
20260506000840 12 66 4.8 17.7 0.00 0.00 0.00 83 1009.5
20260506000401 12 349 6.4 17.7 0.00 0.00 0.00 83 1009.7
20260505235841 12 355 4.8 16.1 0.00 0.00 0.00 83 1009.7
20260505235334 12 350 4.8 14.5 0.00 0.00 0.00 83 1009.8
20260505234837 12 350 4.8 14.5 0.00 0.00 0.00 83 1009.7
20260505234334 12 349 3.2 12.9 0.00 0.00 0.00 83 1009.7
20260505233825 12 336 4.8 12.9 0.00 0.00 0.00 84 1009.8
20260505233345 12 355 3.2 12.9 0.00 0.00 0.00 84 1009.5
20260505232836 12 346 4.8 12.9 0.00 0.00 0.00 84 1009.6
20260505232334 13 334 4.8 16.1 0.00 0.00 0.00 84 1009.1
20260505231840 13 341 8.0 19.3 0.00 0.00 0.00 84 1008.9
20260505231326 13 342 6.4 19.3 0.00 0.00 0.00 84 1008.9
20260505230844 13 73 4.8 19.3 0.00 0.00 0.00 84 1008.8
20260505230350 13 349 4.8 19.3 0.00 0.00 0.00 83 1008.5
20260505225853 13 355 3.2 14.5 0.00 0.00 0.00 83 1008.3
20260505225339 13 342 3.2 14.5 0.00 0.00 0.00 83 1008.1
20260505224838 13 346 3.2 14.5 0.00 0.00 0.00 83 1008.2
20260505224326 13 84 4.8 14.5 0.00 0.00 0.00 83 1008.0
20260505223843 13 339 4.8 17.7 0.00 0.00 0.00 82 1007.8
20260505223404 13 341 9.7 17.7 0.00 0.00 0.00 82 1007.6
20260505222827 14 355 4.8 22.5 0.00 0.00 0.00 82 1007.5
20260505222355 14 348 9.7 22.5 0.00 0.00 0.00 82 1007.6
20260505221843 14 267 3.2 24.1 0.00 0.00 0.00 82 1007.6
20260505221327 14 335 4.8 17.7 0.00 0.00 0.00 82 1007.8
20260505220844 15 343 6.4 17.7 0.00 0.00 0.00 81 1008.0
20260505220329 15 53 4.8 14.5 0.00 0.00 0.00 82 1007.8
20260505215838 15 323 4.8 16.1 0.00 0.00 0.00 82 1007.7
20260505215329 15 343 4.8 16.1 0.00 0.00 0.00 81 1007.4
20260505214838 15 65 3.2 9.7 0.00 0.00 0.00 81 1007.4
20260505214325 15 69 3.2 14.5 0.00 0.00 0.00 80 1007.2
20260505213834 16 340 4.8 19.3 0.00 0.00 0.00 79 1007.4
20260505213344 16 5 4.8 19.3 0.00 0.00 0.00 79 1007.5
20260505212850 16 349 3.2 19.3 0.00 0.00 0.00 80 1007.7
20260505212337 16 82 4.8 12.9 0.00 0.00 0.00 80 1007.5
20260505211844 16 344 3.2 27.4 0.00 0.00 0.00 80 1007.5
20260505211327 17 24 4.8 27.4 0.00 0.00 0.00 79 1007.4
20260505210836 17 10 8.0 25.7 0.00 0.00 0.00 79 1007.4
20260505210337 17 342 3.2 25.7 0.00 0.00 0.00 79 1006.8
20260505205827 17 5 3.2 19.3 0.00 0.00 0.00 79 1006.7
20260505205331 17 355 3.2 19.3 0.00 0.00 0.00 78 1007.1
20260505204833 17 325 4.8 17.7 0.00 0.00 0.00 78 1007.4
20260505204340 18 355 3.2 22.5 0.00 0.00 0.00 78 1007.4
20260505203839 18 327 6.4 25.7 0.00 0.00 0.00 78 1006.7
20260505202834 18 333 8.0 24.1 0.00 0.00 0.00 78 1005.9
20260505202329 18 336 9.7 19.3 0.00 0.00 0.00 77 1005.8
20260505201833 19 330 4.8 20.9 0.00 0.00 0.00 77 1005.0
20260505201339 19 50 8.0 20.9 0.00 0.00 0.00 75 1005.3
20260505200831 20 26 6.4 16.1 0.00 0.00 0.00 74 1005.5
20260505200341 20 331 4.8 16.1 0.00 0.00 0.00 73 1005.8
20260505195836 21 341 4.8 17.7 0.00 0.00 0.00 70 1006.1
20260505195326 22 360 6.4 19.3 0.00 0.00 0.00 66 1006.7
20260505194837 24 318 4.8 19.3 0.00 0.00 0.00 64 1006.6
20260505194327 25 331 4.8 19.3 0.00 0.00 0.00 77 1006.3
20260505193836 25 163 1.6 3.2 0.00 0.00 0.00 76 1005.9
20260505193324 25 162 0.0 1.6 0.00 0.00 0.00 77 1005.4
20260505192843 25 161 0.0 1.6 0.00 0.00 0.00 77 1004.9
20260505192344 25 162 0.0 4.8 0.00 0.00 0.00 77 1004.8
20260505191833 25 158 0.0 3.2 0.00 0.00 0.00 77 1004.8
20260505191333 25 158 0.0 3.2 0.00 0.00 0.00 78 1004.7
20260505190840 25 158 0.0 3.2 0.00 0.00 0.00 78 1004.7
20260505190340 25 157 0.0 4.8 0.00 0.00 0.00 79 1004.8
20260505185831 25 157 1.6 4.8 0.00 0.00 0.00 79 1004.8
20260505185334 25 157 0.0 1.6 0.00 0.00 0.00 80 1005.3
20260505184845 24 157 0.0 1.6 0.00 0.00 0.00 79 1005.6
20260505184337 24 157 0.0 4.8 0.00 0.00 0.00 79 1005.8
20260505183844 24 157 1.6 4.8 0.00 0.00 0.00 79 1005.7
20260505183338 24 157 0.0 1.6 0.00 0.00 0.00 80 1005.8
20260505182824 24 157 0.0 1.6 0.00 0.00 0.00 79 1005.7
20260505182338 24 157 0.0 3.2 0.00 0.00 0.00 79 1005.6
20260505181846 24 157 0.0 1.6 0.00 0.00 0.00 79 1005.5
20260505181339 24 157 0.0 4.8 0.00 0.00 0.00 79 1005.3
20260505180835 24 157 0.0 4.8 0.00 0.00 0.00 79 1005.3
20260505180331 24 157 0.0 8.0 0.00 0.00 0.00 80 1005.4
20260505175830 24 157 1.6 8.0 0.00 0.00 0.00 79 1005.5
20260505175331 24 157 0.0 8.0 0.00 0.00 0.00 80 1005.3
20260505174830 24 154 1.6 8.0 0.00 0.00 0.00 80 1005.2
20260505174340 24 158 0.0 9.7 0.00 0.00 0.00 82 1005.2
20260505173829 23 157 1.6 9.7 0.00 0.00 0.00 81 1005.1
20260505173328 23 155 1.6 8.0 0.00 0.00 0.00 82 1005.2
20260505172846 23 153 0.0 6.4 0.00 0.00 0.00 82 1004.2
20260505172334 23 155 0.0 4.8 0.00 0.00 0.00 82 1005.1
20260505171833 23 161 1.6 4.8 0.00 0.00 0.00 82 1005.1
20260505170824 23 152 1.6 9.7 0.00 0.00 0.00 82 1005.1
20260505170329 23 148 1.6 4.8 0.00 0.00 0.00 83 1005.1
20260505165330 23 178 0.0 3.2 0.00 0.00 0.00 83 1005.2
20260505164832 23 179 1.6 12.9 0.00 0.00 0.00 83 1005.1
20260505164352 22 150 1.6 12.9 0.00 0.00 0.00 83 1005.0
20260505163853 22 138 3.2 12.9 0.00 0.00 0.00 84 1005.1
20260505163332 22 161 0.0 9.7 0.00 0.00 0.00 84 1004.9
20260505162825 22 136 3.2 12.9 0.00 0.00 0.00 84 1004.9
20260505162336 22 156 1.6 9.7 0.00 0.00 0.00 84 1005.0
20260505161831 22 155 1.6 11.3 0.00 0.00 0.00 84 1004.9
20260505161331 22 153 1.6 11.3 0.00 0.00 0.00 84 1005.1
20260505160901 22 152 1.6 11.3 0.00 0.00 0.00 84 1005.1
20260505160345 22 143 1.6 8.0 0.00 0.00 0.00 84 1005.1
20260505153333 22 158 1.6 9.7 0.00 0.00 0.00 84 1004.9
20260505152831 22 158 1.6 9.7 0.00 0.00 0.00 84 1004.7
20260505152337 22 160 1.6 4.8 0.00 0.00 0.00 85 1004.9
20260505151836 22 160 0.0 8.0 0.00 0.00 0.00 85 1004.9
20260505151343 22 161 1.6 14.5 0.00 0.00 0.00 85 1004.9
20260505150829 22 142 0.0 14.5 0.00 0.00 0.00 85 1004.9
20260505150339 21 167 1.6 8.0 0.00 0.00 0.00 86 1004.8
20260505140335 21 161 0.0 3.2 0.00 0.00 0.00 87 1005.2
20260505124822 21 144 0.0 8.0 0.00 0.00 0.00 86 1004.5
20260505124345 21 144 1.6 8.0 0.00 0.00 0.00 86 1004.1
20260505123856 21 150 0.0 14.5 0.00 0.00 0.00 86 1004.0
20260505123333 21 150 1.6 14.5 0.00 0.00 0.00 86 1003.9
20260505122839 21 152 3.2 11.3 0.00 0.00 0.00 86 1003.9
20260505122336 21 163 1.6 8.0 0.00 0.00 0.00 86 1003.7
20260505121827 21 165 1.6 8.0 0.00 0.00 0.00 86 1003.6
20260505121331 21 130 1.6 9.7 0.00 0.00 0.00 86 1003.4
20260505120842 21 150 1.6 12.9 0.00 0.00 0.00 86 1003.4
20260505120405 21 167 3.2 12.9 0.00 0.00 0.00 86 1003.4
20260505115828 21 168 0.0 11.3 0.00 0.00 0.00 86 1003.2
20260505115342 21 163 1.6 11.3 0.00 0.00 0.00 86 1003.2
20260505114827 21 165 1.6 14.5 0.00 0.00 0.00 86 1003.2
20260505114324 21 146 3.2 14.5 0.00 0.00 0.00 86 1003.1
20260505113824 21 150 3.2 14.5 0.00 0.00 0.00 85 1003.1
20260505113347 21 157 3.2 16.1 0.00 0.00 0.00 85 1003.1
20260505112826 21 225 1.6 8.0 0.00 0.00 0.00 85 1003.0
20260505112339 21 157 1.6 16.1 0.00 0.00 0.00 85 1003.0
20260505111832 21 157 3.2 17.7 0.00 0.00 0.00 85 1002.9
20260505111327 21 141 3.2 17.7 0.00 0.00 0.00 85 1002.8
20260505110841 21 165 1.6 12.9 0.00 0.00 0.00 85 1002.8
20260505110336 21 163 1.6 11.3 0.00 0.00 0.00 85 1003.0
20260505101838 21 180 3.2 11.3 0.00 0.00 0.00 83 1002.7
20260505101330 21 163 3.2 11.3 0.00 0.00 0.00 83 1002.7
20260505100834 21 159 3.2 11.3 0.00 0.00 0.00 83 1002.7
20260505100325 21 207 1.6 8.0 0.00 0.00 0.00 83 1002.6
20260505095826 21 215 3.2 14.5 0.00 0.00 0.00 83 1002.4
20260505095402 21 165 3.2 16.1 0.00 0.00 0.00 83 1002.6
20260505094841 21 165 3.2 16.1 0.00 0.00 0.00 83 1002.6
20260505094346 21 160 3.2 11.3 0.00 0.00 0.00 82 1002.7
20260505093839 21 202 3.2 11.3 0.00 0.00 0.00 82 1002.9
20260505093347 21 137 3.2 14.5 0.00 0.00 0.00 82 1002.9
20260505092833 21 183 3.2 14.5 0.00 0.00 0.00 82 1002.9
20260505092342 21 170 1.6 14.5 0.00 0.00 0.00 82 1002.9
20260505091832 21 163 1.6 14.5 0.00 0.00 0.00 82 1003.1
20260505091340 21 157 3.2 17.7 0.00 0.00 0.00 81 1003.1
20260505090824 21 209 3.2 16.1 0.00 0.00 0.00 81 1003.2
20260505090330 21 157 1.6 14.5 0.00 0.00 0.00 81 1003.0
20260505085830 21 131 1.6 16.1 0.00 0.00 0.00 81 1003.1
20260505085357 21 227 1.6 16.1 0.00 0.00 0.00 81 1003.1
20260505084843 21 170 4.8 16.1 0.00 0.00 0.00 81 1003.1
20260505084327 21 146 4.8 16.1 0.00 0.00 0.00 81 1003.1
20260505083834 21 186 3.2 14.5 0.00 0.00 0.00 80 1003.0
20260505083336 21 154 3.2 14.5 0.00 0.00 0.00 80 1003.1
20260505082824 21 151 3.2 14.5 0.00 0.00 0.00 80 1003.2
20260505082337 21 146 3.2 14.5 0.00 0.00 0.00 79 1003.2
20260505081829 21 180 4.8 14.5 0.00 0.00 0.00 79 1003.3
20260505081338 21 148 3.2 19.3 0.00 0.00 0.00 79 1003.2
20260505080845 21 227 4.8 14.5 0.00 0.00 0.00 78 1003.4
20260505080347 21 148 3.2 14.5 0.00 0.00 0.00 78 1003.4
20260505075837 21 159 3.2 14.5 0.00 0.00 0.00 78 1003.5
20260505075332 21 200 4.8 12.9 0.00 0.00 0.00 78 1003.5
20260505074822 21 223 1.6 14.5 0.00 0.00 0.00 78 1003.7
20260505074327 21 180 1.6 14.5 0.00 0.00 0.00 78 1003.6
20260505073851 21 140 3.2 12.9 0.00 0.00 0.00 78 1003.6
20260505073327 21 250 3.2 11.3 0.00 0.00 0.00 78 1003.7
20260505072859 21 189 3.2 17.7 0.00 0.00 0.00 78 1003.8
20260505072340 21 150 4.8 17.7 0.00 0.00 0.00 77 1003.7
20260505071829 21 136 3.2 16.1 0.00 0.00 0.00 77 1003.7
20260505071340 21 158 4.8 16.1 0.00 0.00 0.00 77 1003.7
20260505070849 21 166 3.2 14.5 0.00 0.00 0.00 77 1003.8
20260505070334 21 147 4.8 14.5 0.00 0.00 0.00 77 1003.8
20260505065838 22 185 4.8 14.5 0.00 0.00 0.00 76 1003.8
20260505065327 22 177 3.2 17.7 0.00 0.00 0.00 77 1004.0
20260505064855 22 144 4.8 17.7 0.00 0.00 0.00 76 1004.1
20260505064330 22 157 1.6 17.7 0.00 0.00 0.00 76 1004.1
20260505063842 22 157 4.8 17.7 0.00 0.00 0.00 76 1004.2
20260505063337 22 176 1.6 12.9 0.00 0.00 0.00 76 1004.2
20260505062837 22 153 4.8 14.5 0.00 0.00 0.00 76 1004.3
20260505062405 22 146 3.2 14.5 0.00 0.00 0.00 76 1004.4
20260505061832 22 178 3.2 14.5 0.00 0.00 0.00 76 1004.5
20260505061327 22 158 3.2 14.5 0.00 0.00 0.00 76 1004.5
20260505060824 22 159 3.2 19.3 0.00 0.00 0.00 76 1004.5
20260505060339 22 153 4.8 19.3 0.00 0.00 0.00 76 1004.6